This demonstration page uses our WeatherBlox Daily Observations layout. Learn more.

Left ArrowRight Arrow

34.02893, -84.19858

Hourly Observations for February 21, 2022

Temp ( °F °C ) Dew Point ( °F °C ) Humidity (%) Winds ( mph kmh ) Pressure ( in mb ) Visibility ( mi km ) Precip ( " mm )
12:53 am 00:53 Clear 48 8.9 26 -3.3 42 42 Calm 30.31 1026 10 16 0.00 0.00
1:53 am 01:53 Clear 47 8.3 26 -3.3 44 44 Calm 30.31 1026 10 16 0.00 0.00
2:53 am 02:53 Clear 46 7.8 26 -3.3 46 46 VRB 3 6 30.30 1026 10 16 0.00 0.00
3:53 am 03:53 Clear 44 6.7 26 -3.3 49 49 VRB 3 6 30.29 1026 10 16 0.00 0.00
4:53 am 04:53 Clear 43 6.1 25 -3.9 49 49 Calm 30.29 1026 10 16 0.00 0.00
5:53 am 05:53 Mostly Cloudy 43 6.1 26 -3.3 51 51 VRB 3 6 30.30 1026 10 16 0.00 0.00
6:53 am 06:53 Mostly Cloudy 42 5.6 27 -2.8 55 55 Calm 30.31 1026 10 16 0.00 0.00
7:53 am 07:53 Sunny 43 6.1 27 -2.8 53 53 E 5 7 30.31 1027 10 16 0.00 0.00
8:51 am 08:51 Mostly Cloudy 46 8 32 0 57 57 ENE 5 7 30.35 1028 10 16 0.00 0.00
8:53 am 08:53 Mostly Cloudy 46 7.8 32 0 58 58 VRB 3 6 30.34 1028 10 16 0.00 0.00
9:53 am 09:53 Cloudy 50 10 38 3.3 63 63 VRB 5 7 30.34 1027 10 16 0.00 0.00
10:24 am 10:24 Mostly Cloudy 52 11.1 41 5 66 66 E 8 13 30.33 1027 10 16 0.00 0.00
10:53 am 10:53 Partly Cloudy 55 12.8 43 6.1 64 64 VRB 6 9 30.32 1027 10 16 0.00 0.00
11:07 am 11:07 Mostly Cloudy 55 12.8 44 6.7 67 67 ENE 5 7 30.33 1027 10 16 0.00 0.00
11:53 am 11:53 Mostly Cloudy 57 13.9 46 7.8 67 67 SSE 5 7 30.32 1027 10 16 0.00 0.00
11:59 am 11:59 Mostly Cloudy 57 13.9 46 7.8 67 67 SSE 6 9 30.31 1026 10 16 0.00 0.00
12:53 pm 12:53 Cloudy 57 13.9 48 8.9 72 72 S 3 6 30.31 1026 10 16 0.00 0.00
1:23 pm 13:23 Cloudy 56 13.3 48 8.9 75 75 SSE 6 9 30.28 1025 10 16 0.00 0.00
1:53 pm 13:53 Cloudy with Light Rain 54 12.2 49 9.4 83 83 SE 6 9 30.26 1025 5 8 0.00 0.00
2:53 pm 14:53 Cloudy with Light Rain 53 11.7 51 10.6 93 93 SSE 5 7 30.26 1025 3 5 0.10 2.54
3:53 pm 15:53 Cloudy with Light Rain 53 11.7 52 11.1 96 96 Calm 30.27 1025 5 8 0.08 2.03
4:30 pm 16:30 Cloudy with Light Rain 53 11.7 52 11.1 96 96 Calm 30.29 1026 3 4 0.05 1.27
4:42 pm 16:42 Cloudy with Light Rain 53 11.7 52 11.1 96 96 Calm 30.28 1026 1 2 0.07 1.78
4:53 pm 16:53 Cloudy with Rain 52 11.1 52 11.1 100 100 Calm 30.29 1026 1 2 0.10 2.54
5:53 pm 17:53 Cloudy with Mist and Fog 53 11.7 52 11.1 96 96 Calm 30.30 1026 1 2 0.06 1.52
6:05 pm 18:05 Cloudy with Light Rain 53 11.7 52 11.1 96 96 Calm 30.29 1026 3 5 0.00 0.00
6:39 pm 18:39 Cloudy with Rain 52 11.1 52 11.1 100 100 ESE 3 6 30.30 1026 3 4 0.06 1.52
6:53 pm 18:53 Cloudy with Rain 52 11.1 52 11.1 100 100 VRB 3 6 30.31 1027 3 4 0.06 1.52
7:00 pm 19:00 Cloudy with Rain 52 11.1 52 11.1 100 100 ESE 3 6 30.30 1026 4 6 0.00 0.00
7:53 pm 19:53 Cloudy with Rain 52 11.1 51 10.6 97 97 SE 7 11 30.29 1026 4 6 0.03 0.76
8:37 pm 20:37 Cloudy with Rain 52 11.1 51 10.6 97 97 SSW 6 9 30.31 1026 9 14 0.01 0.25
8:49 pm 20:49 Cloudy with Rain 54 12 52 11 94 94 SSE 6 9 30.31 1027 9 14 0.01 0.25
8:53 pm 20:53 Cloudy with Rain 52 11.1 51 10.6 97 97 SSE 6 9 30.32 1027 7 11 0.02 0.51
9:53 pm 21:53 Cloudy with Rain 53 11.7 52 11.1 96 96 SE 7 11 30.28 1026 6 10 0.10 2.54
10:53 pm 22:53 Cloudy with Rain 52 11.1 51 10.6 97 97 Calm 30.31 1026 9 14 0.04 1.02
11:25 pm 23:25 Cloudy with Rain 52 11.1 52 11.1 100 100 Calm 30.31 1026 2 3 0.05 1.27
11:44 pm 23:44 Cloudy with Rain 52 11.1 52 11.1 100 100 Calm 30.29 1026 4 6 0.06 1.52
11:53 pm 23:53 Cloudy with Rain 52 11.1 52 11.1 100 100 Calm 30.28 1025 5 8 0.06 1.52

Powered by AerisWeather